FENGYUN 1C DEB

Satellite information

Favourite Embed

Satellite Type and Status

DEBRISIN ORBIT

Key statistics

Satellite FENGYUN 1C DEB at a glance.

Uptime

9658

Days in orbit

Revolutions

≈ 15.0

Per day

Orbit

SSO

Sun Synchronous Orbit

Inclination

99.0

Latest

Satellite identification and parameters

Extended collection of information and parameters for FENGYUN 1C DEB.

Object identification

Identified? True

Debris? True

Object name: FENGYUN 1C DEB

International designator: 1999-025BMV

Object number (NORAD): 31263

Object ID (CCSDS): 31263

Country: PEOPLES REPUBLIC OF CHINA (PRC)

Current information (Y/N): Y

RCS size: SMALL

Orbital parameters

Period: 96.158 minutes

Inclination: 98.9991 deg

SMA: 6952.633 km

Apoapsis: 590.767 km

Periapsis: 558.229 km

RAAN: 182.0419 deg

Eccentricy: 0.00234003

Argument of periapsis: 67.5617 deg

Mean anomaly: 292.8076 deg

Mean motion: 14.97541266 rev/day

Mean motion (dot): 0.00177526 rev/day2

B* drag term: 0.014770789 1/REarth

Two-line elements (TLE)

Creation date: Sept. 30, 2025, 3:31 a.m.

Reference frame: TEME

Reference center: EARTH

Epoch: Sept. 28, 2025, 5:15 p.m. UTC

TLE line 0: 0 FENGYUN 1C DEB

TLE line 1: 1 31263U 99025BMV 25271.71933734 .00177526 00000-0 14771-1 0 9993

TLE line 2: 2 31263 98.9991 182.0419 0023400 67.5617 292.8076 14.97541266960293

Live tracking on map

Real-time ground track for satellite FENGYUN 1C DEB.

In-orbit conjunctions

A list of the most updated potential collisions computed for object FENGYUN 1C DEB.

Target Orbit TCA Probability of collision Miss distance Type
SL-14 R/B LEO 2025-07-28 07:57:40 0.000443348 110.0 (m) ROCKET BODY
OBJECT C SSO 2025-07-20 06:30:16 0.0001968373 838.0 (m) UNKNOWN
SL-8 DEB * LEO 2024-11-09 10:45:16 0.0001790132 537.0 (m) DEBRIS
PICOSAT 5 SSO 2024-08-22 11:16:21 0.0001593239 482.0 (m) PAYLOAD
COSMOS 1331 LEO 2024-06-01 16:39:48 0.0002977709 71.0 (m) PAYLOAD

Associated space launch

Chinese polar orbiting meteorological satellite

FENGYUN 1C DEB was lifted into orbit during the mission ‘Long March 4B | Feng Yun 1C’, on board a Long March 4B space rocket.

The launch took place on May 10, 1999, 1:33 a.m. from Launch Complex 7.

For more information about the launch, click the button.

Launch to space Long March 4B | Feng Yun 1C
Long March 4B | Feng Yun 1C

Agency: N/A

Status: Launch Successful

Launch date: May 10, 1999, 1:33 a.m. UTC

Rocket: Long March 4B

Launch pad: Launch Complex 7

Location: Taiyuan Satellite Launch Center, People's Republic of China

...

Latest news about this satellite

There are no fresh news available about this satellite. Check back as we update our databases every day.


Newsletter sign-up

Weekly statistics, charts and insights to help you stay on top of the space industry.